When you browse on this site, cookies collect data to enhance your experience and personalize the content and advertising you see.
Visit our Privacy Policy to learn more. By continuing to use the site, you agree to this use of cookies and data.
  • en France
  • Liste des pays
  • À 7 jours
  • Température de l'eau
  • Carte météo
  • Widgets météo
  • user-avatar
    Se connecter

    Météo par heure à Ordino

    Ce jour, 18 Février, Mardi

    Heure Température Précipitation Vent Pression Humidité
    00:00 +2°C° 0 mm 2 m/s 639 mmHg 87%
    01:00 +1°C° 0 mm 2 m/s 639 mmHg 87%
    02:00 -1°C° 0 mm 2 m/s 638 mmHg 87%
    03:00 -1°C° 0 mm 2 m/s 638 mmHg 87%
    04:00 -2°C° 0 mm 2 m/s 638 mmHg 85%
    05:00 -2°C° 0 mm 2 m/s 638 mmHg 84%
    06:00 -2°C° 0 mm 2 m/s 638 mmHg 83%
    07:00 -1°C° 0 mm 2 m/s 639 mmHg 76%
    08:00 +2°C° 0 mm 1 m/s 639 mmHg 69%
    09:00 +3°C° 0 mm 1 m/s 640 mmHg 62%
    10:00 +4°C° 0 mm 1 m/s 640 mmHg 59%
    11:00 +6°C° 0 mm 1 m/s 641 mmHg 55%
    12:00 +7°C° 0 mm 1 m/s 641 mmHg 52%
    13:00 +7°C° 0 mm 1 m/s 640 mmHg 54%
    14:00 +7°C° 0 mm 1 m/s 640 mmHg 56%
    15:00 +7°C° 0 mm 1 m/s 640 mmHg 59%
    16:00 +5°C° 0 mm 1 m/s 639 mmHg 69%
    17:00 +3°C° 0 mm 1 m/s 639 mmHg 78%
    18:00 +2°C° 0 mm 1 m/s 638 mmHg 88%
    19:00 +1°C° 0 mm 1 m/s 638 mmHg 89%
    20:00 -1°C° 0 mm 2 m/s 638 mmHg 89%
    21:00 -1°C° 0 mm 2 m/s 639 mmHg 89%
    22:00 -2°C° 0 mm 2 m/s 639 mmHg 88%
    23:00 0°C° 0 mm 1 m/s 638 mmHg 87%

    Demain, 19 Février, Mercredi

    Heure Température Précipitation Vent Pression Humidité
    00:00 0°C° 0 mm 1 m/s 638 mmHg 86%
    01:00 0°C° 0 mm 1 m/s 638 mmHg 82%
    02:00 0°C° 0 mm 1 m/s 638 mmHg 79%
    03:00 -1°C° 0 mm 1 m/s 637 mmHg 75%
    04:00 -3°C° 0 mm 2 m/s 637 mmHg 72%
    05:00 -3°C° 0 mm 2 m/s 637 mmHg 70%
    06:00 -3°C° 0 mm 2 m/s 637 mmHg 67%
    07:00 -2°C° 0 mm 2 m/s 638 mmHg 61%
    08:00 +1°C° 0 mm 2 m/s 639 mmHg 56%
    09:00 +3°C° 0 mm 1 m/s 640 mmHg 50%
    10:00 +5°C° 0 mm 1 m/s 641 mmHg 44%
    11:00 +7°C° 0 mm 1 m/s 641 mmHg 38%
    12:00 +9°C° 0 mm 1 m/s 641 mmHg 32%
    13:00 +9°C° 0 mm 1 m/s 641 mmHg 36%
    14:00 +9°C° 0 mm 1 m/s 640 mmHg 40%
    15:00 +8°C° 0 mm 1 m/s 639 mmHg 45%
    16:00 +6°C° 0 mm 1 m/s 639 mmHg 55%
    17:00 +4°C° 0 mm 1 m/s 638 mmHg 66%
    18:00 +1°C° 0 mm 0 m/s 637 mmHg 76%
    19:00 +2°C° 0 mm 1 m/s 637 mmHg 69%
    20:00 +2°C° 0 mm 1 m/s 637 mmHg 62%
    21:00 +3°C° 0 mm 1 m/s 637 mmHg 55%
    22:00 +3°C° 0 mm 1 m/s 637 mmHg 51%
    23:00 +3°C° 0 mm 1 m/s 636 mmHg 47%

    Après-demain, 20 Février, Jeudi

    Heure Température Précipitation Vent Pression Humidité
    00:00 +3°C° 0 mm 1 m/s 636 mmHg 43%
    01:00 +3°C° 0 mm 1 m/s 636 mmHg 40%
    02:00 +3°C° 0 mm 1 m/s 635 mmHg 38%
    03:00 +3°C° 0 mm 1 m/s 635 mmHg 36%
    04:00 +3°C° 0 mm 1 m/s 635 mmHg 34%
    05:00 +3°C° 0 mm 1 m/s 634 mmHg 32%
    06:00 +3°C° 0 mm 1 m/s 634 mmHg 31%
    07:00 +5°C° 0 mm 1 m/s 635 mmHg 31%
    08:00 +7°C° 0 mm 1 m/s 635 mmHg 30%
    09:00 +9°C° 0 mm 1 m/s 636 mmHg 30%
    10:00 +11°C° 0 mm 1 m/s 636 mmHg 30%
    11:00 +12°C° 0 mm 1 m/s 637 mmHg 29%
    12:00 +13°C° 0 mm 1 m/s 637 mmHg 29%
    13:00 +13°C° 0 mm 1 m/s 637 mmHg 31%
    14:00 +13°C° 0 mm 1 m/s 636 mmHg 33%
    15:00 +12°C° 0 mm 1 m/s 636 mmHg 36%
    16:00 +10°C° 0 mm 1 m/s 636 mmHg 46%
    17:00 +8°C° 0 mm 1 m/s 635 mmHg 56%
    18:00 +5°C° 0 mm 1 m/s 634 mmHg 67%
    19:00 +5°C° 0 mm 1 m/s 635 mmHg 66%
    20:00 +4°C° 0 mm 1 m/s 635 mmHg 65%
    21:00 +4°C° 0 mm 1 m/s 636 mmHg 64%
    22:00 +4°C° 0 mm 1 m/s 636 mmHg 64%
    23:00 +3°C° 0 mm 1 m/s 636 mmHg 64%

    21 Février, Vendredi

    Heure Température Précipitation Vent Pression Humidité
    00:00 +3°C° 0 mm 1 m/s 636 mmHg 64%
    01:00 +3°C° 0 mm 1 m/s 636 mmHg 67%
    02:00 +2°C° 0 mm 1 m/s 636 mmHg 70%
    03:00 +2°C° 0 mm 1 m/s 636 mmHg 74%
    04:00 +2°C° 0 mm 1 m/s 637 mmHg 74%
    05:00 +2°C° 0 mm 1 m/s 637 mmHg 75%
    06:00 +2°C° 0 mm 1 m/s 637 mmHg 75%
    13:00 +11°C° 0 mm 1 m/s 641 mmHg 46%
    14:00 +11°C° 0 mm 1 m/s 640 mmHg 48%
    15:00 +11°C° 0 mm 1 m/s 640 mmHg 51%
    16:00 +8°C° 0 mm 1 m/s 639 mmHg 62%
    17:00 +6°C° 0 mm 1 m/s 639 mmHg 73%
    18:00 +3°C° 0 mm 0 m/s 638 mmHg 84%
    19:00 +3°C° 0 mm 0 m/s 638 mmHg 82%
    20:00 +4°C° 0 mm 1 m/s 639 mmHg 80%
    21:00 +4°C° 0 mm 1 m/s 639 mmHg 78%
    22:00 +3°C° 0 mm 1 m/s 639 mmHg 70%
    23:00 +3°C° 0 mm 1 m/s 639 mmHg 63%

    22 Février, Samedi

    Heure Température Précipitation Vent Pression Humidité
    00:00 +3°C° 0 mm 1 m/s 639 mmHg 56%
    01:00 +3°C° 0 mm 1 m/s 639 mmHg 50%
    02:00 +3°C° 0 mm 1 m/s 639 mmHg 44%
    03:00 +3°C° 0 mm 1 m/s 639 mmHg 39%
    04:00 +3°C° 0 mm 1 m/s 639 mmHg 36%
    05:00 +3°C° 0 mm 1 m/s 639 mmHg 33%
    06:00 +3°C° 0 mm 1 m/s 639 mmHg 31%
    07:00 +5°C° 0 mm 1 m/s 641 mmHg 30%
    08:00 +7°C° 0 mm 1 m/s 642 mmHg 29%
    09:00 +8°C° 0 mm 0 m/s 643 mmHg 28%
    10:00 +9°C° 0 mm 0 m/s 643 mmHg 28%
    11:00 +12°C° 0 mm 1 m/s 644 mmHg 28%
    12:00 +13°C° 0 mm 1 m/s 644 mmHg 28%
    13:00 +13°C° 0 mm 1 m/s 644 mmHg 32%
    14:00 +13°C° 0 mm 1 m/s 643 mmHg 36%
    15:00 +12°C° 0 mm 1 m/s 643 mmHg 39%
    16:00 +10°C° 0 mm 1 m/s 642 mmHg 51%
    17:00 +8°C° 0 mm 1 m/s 641 mmHg 63%
    18:00 +4°C° 0 mm 0 m/s 641 mmHg 74%
    19:00 +5°C° 0 mm 1 m/s 641 mmHg 67%
    20:00 +5°C° 0 mm 1 m/s 641 mmHg 60%
    21:00 +5°C° 0 mm 1 m/s 641 mmHg 53%
    22:00 +5°C° 0 mm 1 m/s 641 mmHg 48%
    23:00 +5°C° 0 mm 1 m/s 641 mmHg 42%

    23 Février, Dimanche

    Heure Température Précipitation Vent Pression Humidité
    00:00 +5°C° 0 mm 1 m/s 641 mmHg 37%
    01:00 +5°C° 0 mm 1 m/s 641 mmHg 35%
    02:00 +5°C° 0 mm 1 m/s 641 mmHg 33%
    03:00 +5°C° 0 mm 1 m/s 640 mmHg 31%
    04:00 +5°C° 0 mm 1 m/s 640 mmHg 30%
    05:00 +5°C° 0 mm 1 m/s 640 mmHg 29%
    06:00 +5°C° 0 mm 1 m/s 640 mmHg 28%
    07:00 +7°C° 0 mm 1 m/s 641 mmHg 28%
    08:00 +8°C° 0 mm 0 m/s 642 mmHg 29%
    09:00 +10°C° 0 mm 0 m/s 643 mmHg 30%
    10:00 +11°C° 0 mm 0 m/s 643 mmHg 29%
    11:00 +14°C° 0 mm 1 m/s 644 mmHg 28%
    12:00 +15°C° 0 mm 1 m/s 644 mmHg 28%
    13:00 +15°C° 0 mm 1 m/s 643 mmHg 30%
    14:00 +15°C° 0 mm 1 m/s 643 mmHg 33%
    15:00 +15°C° 0 mm 1 m/s 642 mmHg 36%
    16:00 +12°C° 0 mm 1 m/s 641 mmHg 46%
    17:00 +10°C° 0 mm 1 m/s 640 mmHg 55%
    18:00 +8°C° 0 mm 1 m/s 640 mmHg 64%
    19:00 +7°C° 0 mm 1 m/s 640 mmHg 60%
    20:00 +7°C° 0 mm 1 m/s 640 mmHg 55%
    21:00 +7°C° 0 mm 1 m/s 640 mmHg 51%
    22:00 +6°C° 0 mm 1 m/s 639 mmHg 47%
    23:00 +6°C° 0 mm 1 m/s 639 mmHg 44%
    Voir plus